Pos.Doss.NomPrenomTempsVit.Moy.Allure Pos. catégCatégorie Points Club
1 4022 Lambotte Benoit 00:42:25 14.57 00:04:07 1Séniors 1000 athenee esneux
2 4012 Charnier Christian 00:42:28 14.55 00:04:07 2Séniors 992 jogging plus
3 4088 Leyens Pierre 00:42:37 14.5 00:04:08 ? 0
4 53 Baar Grégory 00:43:17 14.28 00:04:12 3Séniors 983
5 4030 Lamberty Helori 00:46:09 13.39 00:04:29 4Séniors 975 SER ATHL
6 113 Henrottin Gaël 00:46:14 13.37 00:04:29 5Séniors 967 RDV RUN BEYNE
7 4035 Regnard Antoine 00:46:16 13.36 00:04:30 6Séniors 958 cs chamonix
8 35 De hey Benjamin 00:46:20 13.34 00:04:30 1Espoirs H 950 Hautes Fagnes
9 44 Christodouleas Patrick 00:46:29 13.3 00:04:31 1Vétérans 2 942 JOG IN ATTITUDE
10 4015 Debatty Herve 00:47:13 13.09 00:04:35 1Vétérans 1 933
11 4017 Vrancken Marc 00:48:00 12.88 00:04:40 2Vétérans 2 925
12 249 Restiglian Pierre 00:48:19 12.79 00:04:41 7Séniors 917 JOG IN ATTITUDE
13 78 Poncelet Hugues 00:48:28 12.75 00:04:42 8Séniors 908 RDV RUN BEYNE
14 37 Pipeleers Kris 00:48:31 12.74 00:04:43 2Vétérans 1 900
15 317 Vrancken Jo 00:48:33 12.73 00:04:43 9Séniors 892 MJ Sport
16 121 Lehance Pascal 00:48:40 12.7 00:04:43 3Vétérans 1 883 RFCL
17 115 Guissart Alain 00:49:14 12.55 00:04:47 4Vétérans 1 875
18 4036 Gheur Pierre 00:49:16 12.54 00:04:47 1Vétérans 3 867 jcpmf
19 376 Bollen Pascal 00:49:53 12.39 00:04:51 3Vétérans 2 858 SER ATHL
20 4081 Corswarem Pierre henri 00:49:58 12.37 00:04:51 10Séniors 850 wac
21 4094 Paulissen Cedric 00:50:05 12.34 00:04:52 11Séniors 842 jst
22 4018 Collignon Frederic 00:50:16 12.29 00:04:53 5Vétérans 1 833
23 48 Halders Servais 00:51:13 12.07 00:04:58 2Vétérans 3 825 Hautes Fagnes
24 4050 Henaux Stephane 00:51:42 11.95 00:05:01 12Séniors 817 filouteam
25 241 Buckinx Etienne 00:51:45 11.94 00:05:01 4Vétérans 2 808 RFCL
26 4021 Ravigna Pierre 00:51:49 11.93 00:05:02 5Vétérans 2 800 JOG IN ATTITUDE
27 89 Jeukens Michel 00:51:50 11.92 00:05:02 6Vétérans 1 792
28 4008 Haouchine Hassn 00:52:23 11.8 00:05:05 7Vétérans 1 783
29 393 Rulence Ludovic 00:53:08 11.63 00:05:010 8Vétérans 1 775
30 2 Frederich Dominique 00:53:18 11.59 00:05:10 1Ainées 2 767 Herv AC
31 333 Barnabe Michel 00:53:19 11.59 00:05:11 6Vétérans 2 758 RDV RUN BEYNE
32 32 Rigo Michel 00:54:44 11.29 00:05:19 9Vétérans 1 750
33 51 Knapen Laurent 00:55:10 11.2 00:05:21 3Vétérans 3 742 JOG IN ATTITUDE
34 4047 Labaye Dorothee 00:55:24 11.16 00:05:23 1Dames 733 JOG IN ATTITUDE
35 36 Bynens Nicolas 00:55:32 11.13 00:05:23 4Vétérans 3 725 Juprelle
36 5 Mathot Richard 00:56:43 10.9 00:05:30 5Vétérans 3 717 AMC MEHAGNE
37 4076 Zanettin Julien 00:56:55 10.86 00:05:32 13Séniors 708
38 309 Martin Eric 00:57:58 10.66 00:05:38 7Vétérans 2 700
39 385 Letellier Jean luc 00:58:17 10.6 00:05:40 8Vétérans 2 692
40 4028 Lambotte Pascal 00:58:21 10.59 00:05:40 9Vétérans 2 683
41 4061 Pirlot Xavier 00:58:39 10.54 00:05:42 14Séniors 675
42 4007 Piron Andre 00:59:10 10.45 00:05:45 6Vétérans 3 667 SERUNNERS
43 70 Darcis Joel 00:59:31 10.38 00:05:47 15Séniors 658 RDV RUN BEYNE
44 59 Hilderson Luc 00:59:50 10.33 00:05:49 7Vétérans 3 650
45 4006 Bona Guy 01:00:22 10.24 00:05:52 8Vétérans 3 642 SERUNNERS
46 4020 Heptia Noel 01:00:23 10.23 00:05:52 ? 0 SER ATHL
47 378 Battistini Luciano 01:00:52 10.15 00:05:55 9Vétérans 3 633
48 4054 Vandendriessche Michael 01:00:54 10.15 00:05:55 16Séniors 625
49 284 Blaise Pierre 01:00:57 10.14 00:05:55 17Séniors 617
50 103 Manfé Dimitri 01:01:07 10.11 00:05:56 18Séniors 608
51 4098 Michel Antoine 01:01:27 10.06 00:05:58 10Vétérans 1 600
52 4029 Dheur Martial 01:01:27 10.06 00:05:58 10Vétérans 2 592 JOG IN ATTITUDE
53 4070 Jacob Laurent 01:01:29 10.05 00:05:58 11Vétérans 1 583
54 4075 Sadzot Alain 01:02:03 9.96 00:06:01 11Vétérans 2 575
55 4083 Defendi Sara 01:02:06 9.95 00:06:02 2Dames 567 waco
56 4068 Deschampheleire Sebastien 01:02:09 9.94 00:06:02 12Vétérans 1 558
57 81 Lefort Pierre 01:02:26 9.9 00:06:04 13Vétérans 1 550 AMC MEHAGNE
58 145 Marot Bernard 01:02:30 9.89 00:06:04 10Vétérans 3 542
59 147 Burniat Olivier 01:02:34 9.88 00:06:04 19Séniors 533 toujours allure
60 4025 Pirard Catherine 01:02:56 9.82 00:06:07 1Ainées 1 525
61 4073 Van rymenam Michael 01:03:09 9.79 00:06:08 20Séniors 517
62 4052 Moreno Manuel 01:03:33 9.72 00:06:10 14Vétérans 1 508
63 22 Hayen Thomas 01:03:41 9.7 00:06:11 21Séniors 500
64 39 Derycke Brithany 01:04:12 9.63 00:06:14 1Espoirs D 492 la licorne
65 92 Rulmont Claude 01:04:12 9.63 00:06:14 12Vétérans 2 483 la licorne
66 4000 Coura Giulia 01:04:24 9.6 00:06:15 ? 0
67 4069 Terwagne Pierre 01:04:33 9.57 00:06:16 15Vétérans 1 475
68 4057 Dupont Loic 01:04:34 9.57 00:06:16 22Séniors 467
69 4082 Kabwe Jeanne 01:04:38 9.56 00:06:17 2Ainées 2 458
70 4065 Lambert Frederic 01:04:43 9.55 00:06:17 16Vétérans 1 450
71 335 Tran Xuanmai 01:05:25 9.45 00:06:21 2Ainées 1 442
72 4042 Musiaux Christophe 01:05:32 9.43 00:06:22 23Séniors 433 jcpmf ouffet
73 4084 Nulens Cedric 01:05:34 9.43 00:06:22 24Séniors 425
74 399 Leloup Dominique 01:05:42 9.41 00:06:23 3Ainées 2 417 RDV RUN BEYNE
75 4024 Duplouy Gerard 01:05:50 9.39 00:06:23 13Vétérans 2 408
76 4003 Laruelle Alain 01:06:49 9.25 00:06:29 14Vétérans 2 400 SERUNNERS
77 4014 Herremans Julie 01:06:53 9.24 00:06:30 3Dames 392 SER ATHL
78 4019 Coulee Freddy 01:06:55 9.24 00:06:30 11Vétérans 3 383 SERUNNERS
79 4023 Troisfontaines Eric 01:06:57 9.23 00:06:30 15Vétérans 2 375
80 4093 Delnaye Julien 01:07:00 9.22 00:06:30 25Séniors 367 jst
81 4027 Defechereux Arno 01:07:33 9.15 00:06:33 ? 0
82 4034 Debruche Thomas 01:07:35 9.14 00:06:34 26Séniors 358
83 4043 Wilkin Maxime 01:07:43 9.13 00:06:34 27Séniors 350
84 307 Renwart Sabrina 01:07:49 9.11 00:06:35 4Dames 342 RDV RUN BEYNE
85 4097 Daele Ariel 01:08:28 9.03 00:06:39 28Séniors 333
86 4062 Chaineux Marc 01:08:51 8.98 00:06:41 17Vétérans 1 325
87 84 Stiemes Nathalie 01:08:55 8.97 00:06:41 3Ainées 1 317 SER ATHL
88 4079 Ancion J pierre 01:09:17 8.92 00:06:44 16Vétérans 2 308
89 77 Nelhiebel Gyula 01:09:24 8.9 00:06:44 17Vétérans 2 300 Le mien
90 4033 Fernandez herrera Bernard 01:09:28 8.9 00:06:45 18Vétérans 1 292
91 60 Peters Fabrice 01:10:12 8.8 00:06:49 19Vétérans 1 283
92 10 Adam Franck 01:10:12 8.8 00:06:49 20Vétérans 1 275 Hst
93 4009 Leon Victor 01:10:24 8.78 00:06:50 12Vétérans 3 267 SERUNNERS
94 4038 Laurent Christophe 01:11:15 8.67 00:06:55 18Vétérans 2 258
95 4074 Magis Francois 01:11:18 8.67 00:06:55 21Vétérans 1 250
96 72 Mancini Michel 01:11:19 8.67 00:06:55 13Vétérans 3 242 SER ATHL
97 4078 Henry Maite 01:11:47 8.61 00:06:58 5Dames 233
98 4041 Daniels Pierre 01:12:16 8.55 00:07:01 19Vétérans 2 225
99 4049 Bragard Edmee 01:12:16 8.55 00:07:01 4Ainées 2 217 rail 38 runn soumagne
100 4040 Lehert Eve 01:13:06 8.45 00:07:06 4Ainées 1 208
101 4060 Dufrane Florent 01:14:16 8.32 00:07:13 29Séniors 200
102 531 Halleux Thibaut 01:16:00 8.13 00:07:23 22Vétérans 1 192 jcpmf ouffet
103 4002 Vandeweyer Ludivine 01:16:20 8.1 00:07:25 6Dames 183 SERUNNERS
104 4080 Deval J michel 01:16:34 8.07 00:07:26 20Vétérans 2 175
105 4071 Collin Isabelle 01:17:06 8.02 00:07:29 5Ainées 1 167
106 4072 Pironnet Chantal 01:17:07 8.01 00:07:29 6Ainées 1 158
107 4066 De marchin Philippe 01:17:25 7.98 00:07:31 21Vétérans 2 150
108 52 Parotte Simone 01:17:58 7.93 00:07:34 1Ainées 3 142
109 50 Van laar Christine 01:17:58 7.93 00:07:34 5Ainées 2 133
110 4016 Nizet Christian 01:18:03 7.92 00:07:35 14Vétérans 3 125 SERUNNERS
111 4037 Fontaine Christian 01:18:03 7.92 00:07:35 15Vétérans 3 117 SERUNNERS
112 4059 Simons Charlotte 01:18:24 7.88 00:07:37 7Dames 108
113 330 Larminier Anne-marie 01:18:35 7.86 00:07:38 2Ainées 3 100
114 4031 Hardy Henry 01:18:36 7.86 00:07:38 16Vétérans 3 92
115 4089 Leyens Thibaut 01:19:38 7.76 00:07:44 ? 0
116 4086 Rogister Marieve 01:19:58 7.73 00:07:46 8Dames 83
117 4046 Riguelle Eric 01:23:17 7.42 00:08:05 23Vétérans 1 75 vico marchin
118 4091 Gillard Christophe 01:23:35 7.39 00:08:07 30Séniors 67 zatopek
119 4096 Feyers J valmy 01:23:43 7.38 00:08:08 31Séniors 58
120 4085 Scenna Emilie 01:24:28 7.32 00:08:12 9Dames 50 ans en forme
121 4011 Dehin Anne 01:24:41 7.3 00:08:13 6Ainées 2 42
122 4039 Laurent Manon 01:24:44 7.29 00:08:14 10Dames 33
123 4013 Pollara Pino 01:26:13 7.17 00:08:22 22Vétérans 2 25 SERUNNERS
124 4056 Dupont Natacha 01:40:46 6.13 00:09:47 11Dames 17
125 4001 De smedt Jacqueline 01:49:46 5.63 00:10:39 7Ainées 1 8
Les boucles de l'Ourthe 2017
Distance : 10.3 kms
125 coureurs
Normal Interclubs